Time,TemperatureF,DewpointF,PressureIn,WindDirection,WindDirectionDegrees,WindSpeedMPH,WindSpeedGustMPH,Humidity,HourlyPrecipIn,Conditions,Clouds,dailyrainin,SolarRadiationWatts/m^2,SoftwareType,DateUTC
2013-06-07 00:03:00,67.0,67.0,29.91,SSW,208,8.0,17.0,99,0.01,,,1.91,0.000000,,2013-06-07 04:03:00,
2013-06-07 00:10:00,66.0,66.0,29.91,SSW,207,8.0,21.0,100,0.02,,,1.92,0.000000,,2013-06-07 04:10:00,
2013-06-07 00:33:00,66.0,66.0,29.91,SSW,207,8.0,21.0,100,0.02,,,1.92,0.000000,,2013-06-07 04:33:00,
2013-06-07 00:42:00,66.0,66.0,29.91,SSW,207,8.0,21.0,100,0.02,,,1.92,0.000000,,2013-06-07 04:42:00,
2013-06-07 00:54:00,66.0,66.0,29.91,SSW,207,8.0,21.0,100,0.02,,,1.92,0.000000,,2013-06-07 04:54:00,
2013-06-07 01:03:00,66.0,66.0,29.91,SSW,207,8.0,21.0,100,0.02,,,1.92,0.000000,,2013-06-07 05:03:00,
2013-06-07 01:10:00,65.0,65.0,29.89,SW,216,8.0,21.0,100,0.45,,,2.21,0.000000,,2013-06-07 05:10:00,
2013-06-07 01:32:00,65.0,65.0,29.89,SW,216,8.0,21.0,100,0.45,,,2.21,0.000000,,2013-06-07 05:32:00,
2013-06-07 01:43:00,65.0,65.0,29.89,SW,216,8.0,21.0,100,0.45,,,2.21,0.000000,,2013-06-07 05:43:00,
2013-06-07 01:52:00,65.0,65.0,29.89,SW,216,8.0,21.0,100,0.45,,,2.21,0.000000,,2013-06-07 05:52:00,
2013-06-07 02:02:00,65.0,65.0,29.89,SW,216,8.0,21.0,100,0.45,,,2.21,0.000000,,2013-06-07 06:02:00,
2013-06-07 02:10:00,64.0,64.0,29.88,SSW,212,9.0,22.0,100,0.16,,,2.21,0.000000,,2013-06-07 06:10:00,
2013-06-07 02:32:00,64.0,64.0,29.88,SSW,212,9.0,22.0,100,0.16,,,2.21,0.000000,,2013-06-07 06:32:00,
2013-06-07 02:43:00,64.0,64.0,29.88,SSW,212,9.0,22.0,100,0.16,,,2.21,0.000000,,2013-06-07 06:43:00,
2013-06-07 02:52:00,64.0,64.0,29.88,SSW,212,9.0,22.0,100,0.16,,,2.21,0.000000,,2013-06-07 06:52:00,
2013-06-07 03:02:00,64.0,64.0,29.88,SSW,212,9.0,22.0,100,0.16,,,2.21,0.000000,,2013-06-07 07:02:00,
2013-06-07 03:10:00,64.0,64.0,29.85,SW,215,4.0,15.0,100,0.04,,,2.17,0.000000,,2013-06-07 07:10:00,
2013-06-07 03:32:00,64.0,64.0,29.85,SW,215,4.0,15.0,100,0.04,,,2.17,0.000000,,2013-06-07 07:32:00,
2013-06-07 03:42:00,64.0,64.0,29.85,SW,215,4.0,15.0,100,0.04,,,2.17,0.000000,,2013-06-07 07:42:00,
2013-06-07 03:52:00,64.0,64.0,29.85,SW,215,4.0,15.0,100,0.04,,,2.17,0.000000,,2013-06-07 07:52:00,
2013-06-07 04:02:00,64.0,64.0,29.85,SW,215,4.0,15.0,100,0.04,,,2.17,0.000000,,2013-06-07 08:02:00,
2013-06-07 04:10:00,62.0,62.0,29.83,North,2,1.0,6.0,100,0.03,,,2.16,0.000000,,2013-06-07 08:10:00,
2013-06-07 04:32:00,62.0,62.0,29.83,North,2,1.0,6.0,100,0.03,,,2.16,0.000000,,2013-06-07 08:32:00,
2013-06-07 04:43:00,62.0,62.0,29.83,North,2,1.0,6.0,100,0.03,,,2.16,0.000000,,2013-06-07 08:43:00,
2013-06-07 04:52:00,62.0,62.0,29.83,North,2,1.0,6.0,100,0.03,,,2.16,0.000000,,2013-06-07 08:52:00,
2013-06-07 05:02:00,62.0,62.0,29.83,North,2,1.0,6.0,100,0.03,,,2.16,0.000000,,2013-06-07 09:02:00,
2013-06-07 05:10:00,62.0,62.0,29.81,NNE,12,4.0,6.0,100,0.05,,,1.93,0.000000,,2013-06-07 09:10:00,
2013-06-07 05:32:00,62.0,62.0,29.81,NNE,12,4.0,6.0,100,0.05,,,1.93,0.000000,,2013-06-07 09:32:00,
2013-06-07 05:43:00,62.0,62.0,29.81,NNE,12,4.0,6.0,100,0.05,,,1.93,0.000000,,2013-06-07 09:43:00,
2013-06-07 05:53:00,62.0,62.0,29.81,NNE,12,4.0,6.0,100,0.05,,,1.93,0.000000,,2013-06-07 09:53:00,
2013-06-07 06:03:00,62.0,62.0,29.81,NNE,12,4.0,6.0,100,0.05,,,1.93,0.000000,,2013-06-07 10:03:00,
2013-06-07 06:10:00,62.0,62.0,29.80,NNE,20,5.0,7.0,100,0.02,,,1.68,0.000000,,2013-06-07 10:10:00,
2013-06-07 06:33:00,62.0,62.0,29.80,NNE,20,5.0,7.0,100,0.02,,,1.68,0.000000,,2013-06-07 10:33:00,
2013-06-07 06:43:00,62.0,62.0,29.80,NNE,20,5.0,7.0,100,0.02,,,1.68,0.000000,,2013-06-07 10:43:00,
2013-06-07 06:53:00,62.0,62.0,29.80,NNE,20,5.0,7.0,100,0.02,,,1.68,0.000000,,2013-06-07 10:53:00,
2013-06-07 07:02:00,62.0,62.0,29.80,NNE,20,5.0,7.0,100,0.02,,,1.68,0.000000,,2013-06-07 11:02:00,
2013-06-07 07:10:00,62.0,62.0,29.80,NNE,21,4.0,8.0,100,0.01,,,1.47,0.000000,,2013-06-07 11:10:00,
2013-06-07 07:32:00,62.0,62.0,29.80,NNE,21,4.0,8.0,100,0.01,,,1.47,0.000000,,2013-06-07 11:32:00,
2013-06-07 07:42:00,62.0,62.0,29.80,NNE,21,4.0,8.0,100,0.01,,,1.47,0.000000,,2013-06-07 11:42:00,
2013-06-07 07:52:00,62.0,62.0,29.80,NNE,21,4.0,8.0,100,0.01,,,1.47,0.000000,,2013-06-07 11:52:00,
2013-06-07 08:02:00,62.0,62.0,29.80,NNE,21,4.0,8.0,100,0.01,,,1.47,0.000000,,2013-06-07 12:02:00,
2013-06-07 08:10:00,65.0,65.0,29.78,North,10,4.0,9.0,100,0.05,,,1.36,13.000000,,2013-06-07 12:10:00,
2013-06-07 08:33:00,65.0,65.0,29.78,North,10,4.0,9.0,100,0.05,,,1.36,13.000000,,2013-06-07 12:33:00,
2013-06-07 08:42:00,65.0,65.0,29.78,North,10,4.0,9.0,100,0.05,,,1.36,13.000000,,2013-06-07 12:42:00,
2013-06-07 08:52:00,65.0,65.0,29.78,North,10,4.0,9.0,100,0.05,,,1.36,13.000000,,2013-06-07 12:52:00,
2013-06-07 09:02:00,65.0,65.0,29.78,North,10,4.0,9.0,100,0.05,,,1.36,13.000000,,2013-06-07 13:02:00,
2013-06-07 09:10:00,68.0,68.0,29.78,North,9,5.0,9.0,99,0.03,,,1.02,111.000000,,2013-06-07 13:10:00,
2013-06-07 09:32:00,68.0,68.0,29.78,North,9,5.0,9.0,99,0.03,,,1.02,111.000000,,2013-06-07 13:32:00,
2013-06-07 09:43:00,68.0,68.0,29.78,North,9,5.0,9.0,99,0.03,,,1.02,111.000000,,2013-06-07 13:43:00,
2013-06-07 09:52:00,68.0,68.0,29.78,North,9,5.0,9.0,99,0.03,,,1.02,111.000000,,2013-06-07 13:52:00,
2013-06-07 10:03:00,68.0,68.0,29.78,North,9,5.0,9.0,99,0.03,,,1.02,111.000000,,2013-06-07 14:03:00,
2013-06-07 10:10:00,72.0,67.0,29.77,North,6,4.0,10.0,85,0.00,,,1.02,316.000000,,2013-06-07 14:10:00,
2013-06-07 10:33:00,72.0,67.0,29.77,North,6,4.0,10.0,85,0.00,,,1.02,316.000000,,2013-06-07 14:33:00,
2013-06-07 10:42:00,72.0,67.0,29.77,North,6,4.0,10.0,85,0.00,,,1.02,316.000000,,2013-06-07 14:42:00,
2013-06-07 10:52:00,72.0,67.0,29.77,North,6,4.0,10.0,85,0.00,,,1.02,316.000000,,2013-06-07 14:52:00,
2013-06-07 11:03:00,72.0,67.0,29.77,North,6,4.0,10.0,85,0.00,,,1.02,316.000000,,2013-06-07 15:03:00,
2013-06-07 11:10:00,71.0,66.0,29.77,NNE,13,3.0,8.0,85,0.00,,,-99.99,562.000000,,2013-06-07 15:10:00,
2013-06-07 11:33:00,71.0,66.0,29.77,NNE,13,3.0,8.0,85,0.00,,,-99.99,562.000000,,2013-06-07 15:33:00,
2013-06-07 11:43:00,71.0,66.0,29.77,NNE,13,3.0,8.0,85,0.00,,,-99.99,562.000000,,2013-06-07 15:43:00,
2013-06-07 11:53:00,71.0,66.0,29.77,NNE,13,3.0,8.0,85,0.00,,,-99.99,562.000000,,2013-06-07 15:53:00,
2013-06-07 12:03:00,71.0,66.0,29.77,NNE,13,3.0,8.0,85,0.00,,,-99.99,562.000000,,2013-06-07 16:03:00,
2013-06-07 12:10:00,75.0,67.0,29.77,NNE,17,4.0,9.0,77,0.00,,,1.00,414.000000,,2013-06-07 16:10:00,
2013-06-07 12:33:00,75.0,67.0,29.77,NNE,17,4.0,9.0,77,0.00,,,1.00,414.000000,,2013-06-07 16:33:00,
2013-06-07 12:43:00,75.0,67.0,29.77,NNE,17,4.0,9.0,77,0.00,,,1.00,414.000000,,2013-06-07 16:43:00,
2013-06-07 12:53:00,75.0,67.0,29.77,NNE,17,4.0,9.0,77,0.00,,,1.00,414.000000,,2013-06-07 16:53:00,
2013-06-07 13:03:00,75.0,67.0,29.77,NNE,17,4.0,9.0,77,0.00,,,1.00,414.000000,,2013-06-07 17:03:00,
2013-06-07 13:10:00,72.0,65.0,29.76,North,8,7.0,18.0,79,0.00,,,1.00,457.000000,,2013-06-07 17:10:00,
2013-06-07 13:32:00,72.0,65.0,29.76,North,8,7.0,18.0,79,0.00,,,1.00,457.000000,,2013-06-07 17:32:00,
2013-06-07 13:43:00,72.0,65.0,29.76,North,8,7.0,18.0,79,0.00,,,1.00,457.000000,,2013-06-07 17:43:00,
2013-06-07 13:53:00,72.0,65.0,29.76,North,8,7.0,18.0,79,0.00,,,1.00,457.000000,,2013-06-07 17:53:00,
2013-06-07 14:09:00,72.0,65.0,29.76,North,8,7.0,18.0,79,0.00,,,1.00,457.000000,,2013-06-07 18:09:00,
2013-06-07 14:10:00,75.0,67.0,29.76,North,352,6.0,17.0,76,0.00,,,1.00,463.000000,,2013-06-07 18:10:00,
2013-06-07 14:38:00,75.0,67.0,29.76,North,352,6.0,17.0,76,0.00,,,1.00,463.000000,,2013-06-07 18:38:00,
2013-06-07 14:45:00,75.0,67.0,29.76,North,352,6.0,17.0,76,0.00,,,1.00,463.000000,,2013-06-07 18:45:00,
2013-06-07 15:01:00,75.0,67.0,29.76,North,352,6.0,17.0,76,0.00,,,1.00,463.000000,,2013-06-07 19:01:00,
2013-06-07 16:10:00,75.0,64.0,29.78,SW,215,9.0,21.0,68,0.00,,,1.00,738.000000,,2013-06-07 20:10:00,
2013-06-07 16:42:00,75.0,64.0,29.78,SW,215,9.0,21.0,68,0.00,,,1.00,738.000000,,2013-06-07 20:42:00,
2013-06-07 16:59:00,75.0,64.0,29.78,SW,215,9.0,21.0,68,0.00,,,1.00,738.000000,,2013-06-07 20:59:00,
2013-06-07 17:10:00,72.0,62.0,29.78,NNW,348,9.0,21.0,71,0.00,,,1.00,614.000000,,2013-06-07 21:10:00,
2013-06-07 17:43:00,72.0,62.0,29.78,NNW,348,9.0,21.0,71,0.00,,,1.00,614.000000,,2013-06-07 21:43:00,
2013-06-07 18:03:00,72.0,62.0,29.78,NNW,348,9.0,21.0,71,0.00,,,1.00,614.000000,,2013-06-07 22:03:00,
2013-06-07 18:09:00,72.0,62.0,29.78,NNW,348,9.0,21.0,71,0.00,,,1.00,614.000000,,2013-06-07 22:09:00,
2013-06-07 18:10:00,73.0,63.0,29.80,North,354,8.0,15.0,71,0.00,,,1.00,375.000000,,2013-06-07 22:10:00,
2013-06-07 18:39:00,73.0,63.0,29.80,North,354,8.0,15.0,71,0.00,,,1.00,375.000000,,2013-06-07 22:39:00,
2013-06-07 18:49:00,73.0,63.0,29.80,North,354,8.0,15.0,71,0.00,,,1.00,375.000000,,2013-06-07 22:49:00,
2013-06-07 19:00:00,73.0,63.0,29.80,North,354,8.0,15.0,71,0.00,,,1.00,375.000000,,2013-06-07 23:00:00,
2013-06-07 19:10:00,74.0,63.0,29.83,North,354,8.0,20.0,69,0.00,,,0.90,319.000000,,2013-06-07 23:10:00,
2013-06-07 19:41:00,74.0,63.0,29.83,North,354,8.0,20.0,69,0.00,,,0.90,319.000000,,2013-06-07 23:41:00,
2013-06-07 19:55:00,74.0,63.0,29.83,North,354,8.0,20.0,69,0.00,,,0.90,319.000000,,2013-06-07 23:55:00,
2013-06-07 20:05:00,74.0,63.0,29.83,North,354,8.0,20.0,69,0.00,,,0.90,319.000000,,2013-06-08 00:05:00,
2013-06-07 20:10:00,70.0,61.0,29.85,North,357,8.0,18.0,72,0.00,,,-99.99,313.000000,,2013-06-08 00:10:00,
2013-06-07 20:37:00,70.0,61.0,29.85,North,357,8.0,18.0,72,0.00,,,-99.99,313.000000,,2013-06-08 00:37:00,
2013-06-07 21:08:00,70.0,61.0,29.85,North,357,8.0,18.0,72,0.00,,,-99.99,313.000000,,2013-06-08 01:08:00,
2013-06-07 21:10:00,68.0,59.0,29.88,NNW,334,5.0,19.0,72,0.00,,,0.89,163.000000,,2013-06-08 01:10:00,
2013-06-07 21:40:00,68.0,59.0,29.88,NNW,334,5.0,19.0,72,0.00,,,0.89,163.000000,,2013-06-08 01:40:00,
2013-06-07 21:49:00,68.0,59.0,29.88,NNW,334,5.0,19.0,72,0.00,,,0.89,163.000000,,2013-06-08 01:49:00,
2013-06-07 22:03:00,68.0,59.0,29.88,NNW,334,5.0,19.0,72,0.00,,,0.89,163.000000,,2013-06-08 02:03:00,
2013-06-07 22:10:00,65.0,56.0,29.92,North,355,4.0,9.0,73,0.00,,,0.87,15.000000,,2013-06-08 02:10:00,
2013-06-07 22:37:00,65.0,56.0,29.92,North,355,4.0,9.0,73,0.00,,,0.87,15.000000,,2013-06-08 02:37:00,
2013-06-07 22:49:00,65.0,56.0,29.92,North,355,4.0,9.0,73,0.00,,,0.87,15.000000,,2013-06-08 02:49:00,
2013-06-07 23:00:00,65.0,56.0,29.92,North,355,4.0,9.0,73,0.00,,,0.87,15.000000,,2013-06-08 03:00:00,
2013-06-07 23:10:00,66.0,56.0,29.94,NNW,340,6.0,9.0,69,0.00,,,0.86,0.000000,,2013-06-08 03:10:00,
2013-06-07 23:40:00,66.0,56.0,29.94,NNW,340,6.0,9.0,69,0.00,,,0.86,0.000000,,2013-06-08 03:40:00,
2013-06-07 23:54:00,66.0,56.0,29.94,NNW,340,6.0,9.0,69,0.00,,,0.86,0.000000,,2013-06-08 03:54:00,